User: anonymous   Login
Location: Ertinghausen
(51.6624°N, 9.7874°E)
Time: 23:30:33
(UTC+00:00)
Language:

SL-16 R/B - Orbit

View from above orbital plane
View from above orbital plane
View from above satellite
View from above satellite

Ground track
Ground track

The orbit data is extracted from the following two-line orbital elements,

1 27006U 01056F   24194.43802465 -.00000007  00000-0  43626-4 0  9992
2 27006  99.6893 341.7976 0015366 102.4999 326.7189 13.71033721130258
Epoch (UTC): 12 July 2024 10:30:45
Eccentricity: 0.0015366
inclination: 99.6893°
perigee height: 984 km
apogee height: 1007 km
right ascension of ascending node: 341.7976°
argument of perigee: 102.4999°
revolutions per day: 13.71033721
mean anomaly at epoch: 326.7189°
orbit number at epoch: 13025

The dashed part of the orbit path shows where the satellite is in the earth's shadow,  

DLR